Kingston, Jamaica

9:02 PM EST on August 28, 2016 (GMT -0500)
Norman Manley International

Weather History for MKJP - August, 2014

Change the Weather History Date:

Monday, August 25, 2014

  Actual Average Record
Temperature  
Mean Temperature 84 °F -  
Max Temperature 90 °F 87 °F 91 °F (2002)
Min Temperature 79 °F 78 °F 77 °F (2012)
Cooling Degree Days 20    
Growing Degree Days 34 (Base 50)    
Moisture  
Dew Point 78 °F    
Average Humidity 79    
Maximum Humidity 89    
Minimum Humidity 63    
Precipitation  
Precipitation 0.00 in - - ()
Sea Level Pressure  
Sea Level Pressure 29.77 in    
Wind  
Wind Speed 4 mph ()    
Max Wind Speed 12 mph    
Max Gust Speed -    
Visibility 7.6 miles    
Events Rain , Thunderstorm    
Averages and records for this station are not official NWS values.
T = Trace of Precipitation, MM = Missing Value Source: Averaged Metar Reports

Daily Weather History Graph

Daily Weather History Graph

Search for Another Location

Airport or City:

Trip Planner

Search our weather history database for the weather conditions in past years. The results will help you decide how hot, cold, wet, or windy it might be!

Date:

Astronomy

Aug. 25, 2014 Rise Set
Actual Time 5:51 AM EST 6:26 PM EST
Civil Twilight 5:29 AM EST 6:48 PM EST
Nautical Twilight 5:03 AM EST 7:14 PM EST
Astronomical Twilight 4:37 AM EST 7:41 PM EST
Moon 5:48 AM EST (8/25) 6:26 PM EST (8/25)
Length of Visible Light 13h 19m
Length of Day
12h 34m
New Moon, 0% of the Moon is Illuminated
Aug 25
New Moon
Sep 2
First Quarter
Sep 8
Full
Sep 15
Last Quarter
Sep 24
New

Hourly Weather History & Observations

Time (EST) Temp. Heat Index Dew Point Humidity Pressure Visibility Wind Dir Wind Speed Gust Speed Precip Events Conditions
12:00 AM 82.4 °F 90.9 °F 77.0 °F 84% 29.77 in 6.2 mi Variable 3.5 mph - N/A   Mostly Cloudy
1:00 AM 82 °F - 78 °F 85% 29.77 in 12 mi 3.5 mph - -  
1:00 AM 82.4 °F 92.4 °F 78.8 °F 89% 29.74 in 6.2 mi Variable 3.5 mph - N/A   Scattered Clouds
2:00 AM 82.4 °F 90.9 °F 77.0 °F 84% 29.74 in 6.2 mi Variable 2.3 mph - N/A   Mostly Cloudy
3:00 AM 82.4 °F 90.9 °F 77.0 °F 84% 29.74 in 6.2 mi WNW 4.6 mph - N/A   Scattered Clouds
4:00 AM 82 °F - 76 °F 79% 29.75 in 12 mi NNW 4.6 mph - -   Haze
4:00 AM 82.4 °F 90.9 °F 77.0 °F 84% 29.74 in 6.2 mi NNW 4.6 mph - N/A   Mostly Cloudy
5:00 AM 82.4 °F 90.9 °F 77.0 °F 84% 29.74 in 6.2 mi Variable 3.5 mph - N/A   Mostly Cloudy
6:00 AM 82.4 °F 90.9 °F 77.0 °F 84% 29.74 in 6.2 mi Variable 2.3 mph - N/A   Partly Cloudy
7:00 AM 82 °F - 79 °F 88% 29.78 in 12 mi 2.3 mph - -   Haze
7:00 AM 82.4 °F 92.4 °F 78.8 °F 89% 29.77 in 6.2 mi Variable 2.3 mph - N/A   Scattered Clouds
8:00 AM 84.2 °F 94.1 °F 77.0 °F 79% 29.77 in 6.2 mi Variable 3.5 mph - N/A   Partly Cloudy
9:00 AM 84.2 °F 96.1 °F 78.8 °F 84% 29.80 in 6.2 mi ESE 3.5 mph - N/A   Mostly Cloudy
10:00 AM 85 °F - 78 °F 73% 29.80 in 11 mi South 5.8 mph - -   Partly Cloudy
10:00 AM 86.0 °F 96.9 °F 77.0 °F 74% 29.80 in 6.2 mi South 5.8 mph - N/A   Scattered Clouds
11:00 AM 86.0 °F 96.9 °F 77.0 °F 74% 29.80 in 6.2 mi SE 8.1 mph - N/A   Scattered Clouds
12:00 PM 86.0 °F 96.9 °F 77.0 °F 74% 29.77 in 6.2 mi SSW 4.6 mph - N/A   Partly Cloudy
1:00 PM 90 °F - 79 °F 63% 29.77 in 14 mi South 6.9 mph - -   Partly Cloudy
1:00 PM 89.6 °F 104.7 °F 78.8 °F 70% 29.77 in 6.2 mi South 6.9 mph - N/A   Partly Cloudy
2:00 PM 86.0 °F 96.9 °F 77.0 °F 74% 29.74 in 6.2 mi South 6.9 mph - N/A Thunderstorm Thunderstorm
2:20 PM 86.0 °F 96.9 °F 77.0 °F 74% 29.74 in 6.2 mi SSE 8.1 mph - N/A   Partly Cloudy
3:00 PM 86.0 °F 96.9 °F 77.0 °F 74% 29.74 in 6.2 mi South 8.1 mph - N/A Thunderstorm Thunderstorm
3:16 PM 86.0 °F 99.3 °F 78.8 °F 79% 29.74 in 6.2 mi SSE 9.2 mph - N/A   Partly Cloudy
4:00 PM 86 °F - 78 °F 72% 29.75 in 12 mi SSE 6.9 mph - - Thunderstorm Light Thunderstorm
4:00 PM 86.0 °F 99.3 °F 78.8 °F 79% 29.74 in 6.2 mi South 6.9 mph - N/A   Partly Cloudy
5:00 PM 86.0 °F 96.9 °F 77.0 °F 74% 29.74 in 6.2 mi SSW 6.9 mph - N/A Thunderstorm Thunderstorm
6:00 PM 86.0 °F 96.9 °F 77.0 °F 74% 29.77 in 6.2 mi SSW 5.8 mph - N/A Thunderstorm Thunderstorm
7:00 PM 85 °F - 78 °F 75% 29.78 in 12 mi West 3.5 mph - - Thunderstorm Light Thunderstorm
7:00 PM 86.0 °F 99.3 °F 78.8 °F 79% 29.77 in 6.2 mi West 3.5 mph - N/A   Mostly Cloudy
8:00 PM 82.4 °F 90.9 °F 77.0 °F 84% 29.77 in 6.2 mi NW 11.5 mph - N/A Rain Light Rain Showers
9:00 PM 80.6 °F 86.2 °F 75.2 °F 84% 29.80 in 6.2 mi WNW 5.8 mph - N/A   Mostly Cloudy
10:00 PM 83 °F - 77 °F 77% 29.82 in 12 mi East 5.8 mph - -   Haze
10:00 PM 82.4 °F 90.9 °F 77.0 °F 84% 29.80 in 6.2 mi East 5.8 mph - N/A   Scattered Clouds
11:00 PM 84.2 °F 94.1 °F 77.0 °F 79% 29.80 in 6.2 mi South 3.5 mph - N/A   Scattered Clouds